Location: Ripley
(48.3812°N, 115.4473°W)
Time: 08:05:31
(UTC+00:00)

EO-79 - Pass Details

Date: 01 July 2022
Orbit: 588 x 603 km, 98.0° (Epoch: 15 August)

Event Time Altitude Azimuth Distance (km) Brightness Sun altitude
Rises 08:59:58 0° 19° (NNE) 2,856 ? -16.6°
Reaches altitude 10° 09:02:15 10° 27° (NNE) 1,951 ? -16.5°
Maximum altitude 09:06:16 41° 98° (E) 884 ? -16.3°
Enters shadow 09:08:40 21° 157° (SSE) 1,365 ? -16.1°
